Location: Moscow Pond
(43.6842°N, 73.2366°W)
Time: 21:43:37
(UTC+00:00)

USA-17 - Pass Details

Date: 08 November 2025
Orbit: 399 x 1583 km, 63.3° (Epoch: 05 December)

Event Time Altitude Azimuth Distance (km) Brightness Sun altitude
Exits shadow 10:35:06 11° 328° (NNW) 1,405 6.5 -11.7°
Maximum altitude 10:38:05 68° 52° (NE) 456 4.5 -11.2°
Drops below altitude 10° 10:41:33 10° 137° (SE) 1,627 8.2 -10.6°
Sets 10:43:53 0° 140° (SE) 2,627 9.3 -10.2°
